TimeCST,TemperatureF,Dew PointF,Humidity,Sea Level PressureIn,VisibilityMPH,Wind Direction,Wind SpeedMPH,Gust SpeedMPH,PrecipitationIn,Events,Conditions,WindDirDegrees,DateUTC
12:53 AM,46.9,43.0,86,30.17,10.0,Calm,Calm,-,N/A,,Clear,0,2012-11-20 06:53:00
1:53 AM,46.4,42.8,87,30.17,10.0,NE,3.5,-,N/A,,Clear,40,2012-11-20 07:53:00
2:53 AM,46.0,43.0,89,30.18,10.0,Calm,Calm,-,N/A,,Clear,0,2012-11-20 08:53:00
3:53 AM,42.1,39.0,89,30.19,8.0,Calm,Calm,-,N/A,,Clear,0,2012-11-20 09:53:00
4:53 AM,41.0,37.9,89,30.19,8.0,Calm,Calm,-,N/A,,Clear,0,2012-11-20 10:53:00
5:53 AM,41.0,37.9,89,30.19,7.0,ENE,3.5,-,N/A,,Clear,60,2012-11-20 11:53:00
6:53 AM,42.1,39.0,89,30.20,7.0,NE,3.5,-,N/A,,Clear,50,2012-11-20 12:53:00
7:53 AM,45.0,42.1,90,30.21,6.0,Calm,Calm,-,N/A,,Clear,0,2012-11-20 13:53:00
8:53 AM,50.0,44.1,80,30.21,10.0,Calm,Calm,-,N/A,,Clear,0,2012-11-20 14:53:00
9:53 AM,57.0,45.0,64,30.22,10.0,Calm,Calm,-,N/A,,Clear,0,2012-11-20 15:53:00
10:53 AM,62.1,46.0,56,30.22,10.0,Calm,Calm,-,N/A,,Clear,0,2012-11-20 16:53:00
11:53 AM,68.0,46.0,45,30.19,10.0,West,6.9,-,N/A,,Clear,260,2012-11-20 17:53:00
12:53 PM,71.1,48.0,44,30.16,10.0,West,6.9,-,N/A,,Clear,260,2012-11-20 18:53:00
1:53 PM,73.0,50.0,44,30.14,10.0,WSW,6.9,-,N/A,,Clear,250,2012-11-20 19:53:00
2:53 PM,73.9,50.0,43,30.12,10.0,West,9.2,-,N/A,,Clear,260,2012-11-20 20:53:00
3:53 PM,73.0,50.0,44,30.12,10.0,WSW,9.2,-,N/A,,Clear,250,2012-11-20 21:53:00
4:53 PM,68.0,48.9,50,30.12,10.0,West,10.4,-,N/A,,Clear,270,2012-11-20 22:53:00
5:53 PM,59.0,46.0,62,30.14,10.0,WNW,5.8,-,N/A,,Clear,290,2012-11-20 23:53:00
6:53 PM,57.0,46.9,69,30.17,10.0,Calm,Calm,-,N/A,,Clear,0,2012-11-21 00:53:00
7:53 PM,54.0,46.0,75,30.19,10.0,North,4.6,-,N/A,,Clear,350,2012-11-21 01:53:00
8:53 PM,51.1,44.1,77,30.20,10.0,Calm,Calm,-,N/A,,Clear,0,2012-11-21 02:53:00
9:53 PM,48.9,42.1,77,30.21,10.0,Calm,Calm,-,N/A,,Clear,0,2012-11-21 03:53:00
10:53 PM,46.0,39.9,79,30.21,10.0,Calm,Calm,-,N/A,,Clear,0,2012-11-21 04:53:00
11:53 PM,45.0,39.9,82,30.22,10.0,Calm,Calm,-,N/A,,Clear,0,2012-11-21 05:53:00